Погода в Арске

Погода в Арске : погода сейчас, прогноз погоды и архив. Всё, что Вы хотите узнать о погоде в Арске!

Хотите узнать прогноз погоды в Арске? Тогда Вам сюда: Погода в Арске

Поиск расширенной информации на нашем сайте:

Другие новости

Новости СМИ2

Главная страница сайта

Новости сайта

03.07.2017

Напоминаем, что на нашем специализированном сайте Метеоцентр.Азия вы можете получить высокодетализированные автоматические прогнозы погоды по пунктам России, СНГ и мира в авиационном формате (включающие направление и скорость ветра, видимость, явления погоды, количество и форму облачности, нижнюю и верхнюю границу облачности).


Погода в Арске - сегодня

Время (UTC), дата Ветер
(°,м/с) 
Видим.   Явления Облачность Т
(°С)
Тd
(°С)
f(%) Тe
(°С)
Pmin
(гПа)
dP
(гПа)
Po
(мм)
O2
(г/м3)
Тmin Tmax R s Состояние
почвы
09 14.08.18 250 (З) 20000 м    8/5 1000 м верхняя 
[Cu med, cong|Ci fib]
+20.4 +10.6 53 +23  1009.9  0.2  744  277           
12 14.08.18 280 (З) 3{10}  10 км  слаб. ливневой дождь  8/8 600 м кучево-дожд. 
[Cb cap]
+19.1 +11.4 61 +23  1010.4  0.4  744  278           
18 14.08.18 270 (З) 20000 м  {ливн. осадки}  ясно 
+15.9 +9.3 65 +17  1013.1  1.9  746  282           
21 14.08.18 230 (ЮЗ) 20000 м    ясно 
+12.1 +8.9 81 +13  1014.3  0.9  747  287           
00 15.08.18 230 (ЮЗ) 20000 м    ясно 
+10.4 +8.2 86 +12  1015.4  748  289           
06 15.08.18 240 (ЮЗ) 20000 м    4/0 верхняя 
[Ci fib]
+20 +11.3 57 +23  1016.4  0.7  749  279           
09 15.08.18 280 (З) 20000 м    6/6 1000 м 
[Cu med, cong]
+22.3 +7.1 37 +22  1016  -0.3  749  278           
12 15.08.18 280 (З) 20000 м    6/6 1000 м 
[Cu med, cong]
+23.5 +6.9 34 +24  1015.8  -0.2  749  277           
18 15.08.18 130 (ЮВ) 20000 м    8/4 600 м средняя 
[Sc|Ac trans]
+17.8 +9.8 59 +20  1015.2  -0.7  748  281           
21 15.08.18 180 (Ю) 20000 м    8/8 600 м 
[Sc]
+18.3 +9.5 56 +21  1013.8  -1.3  747  280           
00 16.08.18 200 (Ю) 20000 м    8/8 600 м 
[Sc]
+18.7 +10.3 58 +21  1012.3  -1.5  746  279           
06 16.08.18 210 (ЮЗ) 20000 м  в посл. час ливневой дождь  9/5 600 м верхняя 
[Sc|Ci ing]
+20 +14.7 72 +28  1010.3  -0.4  744  276           
09 16.08.18 240 (ЮЗ) 4{10}  20000 м    9/9 600 м 
[Cu Sc]
+22.8 +16.2 66 +34  1010.3  0.2  745  273           
12 16.08.18 260 (З) 5{11}  20000 м    8/6 1000 м верхняя 
[Cu med, cong|Ci fib]
+25 +14.7 53 +33  1010.4  -0.1  745  272           
18 16.08.18 330 (СЗ) 20000 м    9/9 600 м 
[Cu Sc]
+16 +12.9 82 +21  1014.3  2.2  747  282           
21 16.08.18 320 (СЗ) 20000 м    9/4 600 м средняя 
[Sc|Ac trans]
+13.3 +11.6 89 +18  1016.2  1.7  748  285           
00 17.08.18 360 (С) 20000 м    3/0 средняя 
[Ac trans]
+12.9 +11.5 91 +16  1017.2  0.9  749  286           
06 17.08.18 360 (С) 20000 м    5/5 1000 м 
[Cu hum]
+17.7 +10.1 61 +19  1019.9  751  283           
09 17.08.18 360 (С) 20000 м    8/8 1000 м 
[Cu hum]
+19.6 +7.4 45 +20  1020.1  0.3  752  281           
12 17.08.18 350 (С) 20000 м    9/9 1000 м 
[Cu hum]
+20.8 +6.3 39 +21  1019.7  -0.3  751  280           
18 17.08.18 040 (СВ) 3{10}  20000 м  в посл. час ливневой дождь  1/1 600 м 
[Sc]
+13.2 +9.9 80 +14  1021.2  0.9  752  287           
21 17.08.18 010 (С) 20000 м    ясно 
+11.3 +8 80 +12  1021.6  0.3  752  290           
00 18.08.18 330 (СЗ) 20000 м    ясно 
+9.1 +7 87 +9  1022.7  0.9  753  292           
06 18.08.18 010 (С) 20000 м    3/3 1000 м 
[Cu hum]
+15.7 +7.3 57 +16  1023.7  0.2  754  286           
09 18.08.18 020 (С) 20000 м    6/6 1000 м 
[Cu hum]
+19 +7 46 +20  1022.6  -0.9  753  283           
Время (UTC), дата Ветер
(°,м/с) 
Видим.   Явления Облачность Т
(°С)
Тd
(°С)
f(%) Тe
(°С)
Pmin
(гПа)
dP
(гПа)
Po
(мм)
O2
(г/м3)
Тmin Tmax R s Состояние
почвы

Для получения пояснительной информации подведите курсор к названию столбца.

ПОГОДА в Арске - архив

Всё, что Вы хотите узнать о погоде в Арске - удобно и подробно!

Выберите нужную дату (начиная с 1 января 2015* года) и нажмите кнопку "Найти".
Будут отображены архивные сводки погоды по пункту Арск, начиная с указанной даты.


Отображать данные в формате CSV (для использования в таблицах Excel)


Внимание! Наш архив погоды предназначен исключительно для личного некоммерческого использования в познавательных целях. Если Вам необходимы официальные справки о состоянии погоды (для производственных, юридических, коммерческих и т.п. целей), обращайтесь в органы Росгидромета.

*Примечание: данная дата относится к архиву по метеостанциям СССР (Россия, СНГ, Балтия).
Архив по метеостанциям Зарубежной Европы и Азии (кроме Китая) хранится 10 дней, по другим регионам земного шара (Китай, Африка, Америка, Австралия, Океания) - 1 день.

Арск - район местоположения метеостанции


Название, широта, долгота, высота метеостанции:
Арск 56.1°ш. 49.9°д. 153 м над ур. моря []

Дополнительная информация

В oтличие oт бoльшинства пoгoдных сайтoв мы публикуем пoдрoбную метеoинфoрмацию в детальнoм прoфессиoнальнoм фoрмате.

Характеристики температуры и влажнoсти вoздуха измеряются на высoте 2 м в тени вдали oт зданий и деревьев.
Скoрoсть ветра измеряется на высoте 10 м (на урoвне рoста челoвека скoрoсть ветра ниже в 1.5-2 раза). Если метеoстанция нахoдится в гoрoде или в лесу, тo скoрoсть ветра занижена на 2-4 м/с пo сравнению с oткрытым местoм. Скoрoсть ветра над акватoриями крупных рек и oзёр, а также на вершинах хoлмoв на 2-5 м/с выше, чем в oбычных услoвиях.
Атмoсфернoе давление в разных тoчках местнoсти мoжет значительнo oтличаться oт давления на метеoстанции, в зависимoсти oт услoвий рельефа (при пoдъёме на 10 м давление пoнижается примернo на 1 мм рт.ст.).